SHT3L EGCC-EGLL

Flight info

Callsign SHT3L
Flight time N/A
Altitude 19000
Route LISTO L612 HON
Aircraft A319/M-SDE3FGHIRWY/LB1

Departure

Time 2026-05-05 21:36
Airport Manchester Airport (EGCC)

Arrival

Time N/A
Airport London Heathrow Airport (EGLL)
Time Latitude Longitude Altitude Speed Heading
2026-05-05 21:10 53.36891 -2.28787 255 ft 0 kts 136°
2026-05-05 21:16 53.36899 -2.28800 255 ft 4 kts 141°
2026-05-05 21:16 53.36921 -2.28821 255 ft 4 kts 174°
2026-05-05 21:16 53.36943 -2.28814 255 ft 2 kts 224°
2026-05-05 21:16 53.36947 -2.28807 255 ft 0 kts 225°
2026-05-05 21:20 53.36946 -2.28809 255 ft 1 kts 225°
2026-05-05 21:21 53.36931 -2.28834 255 ft 2 kts 225°
2026-05-05 21:21 53.36922 -2.28849 255 ft 1 kts 225°
2026-05-05 21:21 53.36910 -2.28868 255 ft 3 kts 224°
2026-05-05 21:21 53.36907 -2.28874 255 ft 1 kts 224°
2026-05-05 21:22 53.36901 -2.28885 255 ft 2 kts 225°
2026-05-05 21:22 53.36887 -2.28907 255 ft 4 kts 224°
2026-05-05 21:22 53.36862 -2.28950 255 ft 6 kts 226°
2026-05-05 21:22 53.36824 -2.29006 255 ft 8 kts 213°
2026-05-05 21:23 53.36768 -2.29041 255 ft 9 kts 195°
2026-05-05 21:23 53.36714 -2.28987 255 ft 10 kts 136°
2026-05-05 21:23 53.36657 -2.28903 255 ft 12 kts 155°
2026-05-05 21:23 53.36591 -2.28812 255 ft 13 kts 118°
2026-05-05 21:24 53.36531 -2.28676 255 ft 16 kts 135°
2026-05-05 21:24 53.36446 -2.28533 255 ft 19 kts 135°
2026-05-05 21:24 53.36331 -2.28445 255 ft 18 kts 142°
2026-05-05 21:24 53.36240 -2.28295 255 ft 18 kts 134°
2026-05-05 21:25 53.36149 -2.28141 255 ft 19 kts 132°
2026-05-05 21:25 53.36058 -2.27999 255 ft 18 kts 139°
2026-05-05 21:25 53.35961 -2.27865 255 ft 18 kts 150°
2026-05-05 21:25 53.35834 -2.27859 252 ft 20 kts 186°
2026-05-05 21:26 53.35687 -2.27885 244 ft 23 kts 186°
2026-05-05 21:26 53.35578 -2.27999 238 ft 19 kts 231°
2026-05-05 21:26 53.35473 -2.28139 234 ft 20 kts 201°
2026-05-05 21:26 53.35347 -2.28181 236 ft 19 kts 193°
2026-05-05 21:27 53.35234 -2.28299 232 ft 19 kts 230°
2026-05-05 21:27 53.35144 -2.28481 227 ft 22 kts 232°
2026-05-05 21:27 53.35055 -2.28667 230 ft 20 kts 230°
2026-05-05 21:27 53.34958 -2.28836 226 ft 20 kts 225°
2026-05-05 21:28 53.34876 -2.28984 221 ft 8 kts 226°
2026-05-05 21:28 53.34873 -2.28989 221 ft 0 kts 226°
2026-05-05 21:31 53.34872 -2.28990 221 ft 2 kts 226°
2026-05-05 21:31 53.34843 -2.29035 219 ft 9 kts 218°
2026-05-05 21:31 53.34802 -2.29066 224 ft 0 kts 191°
2026-05-05 21:34 53.34796 -2.29068 222 ft 3 kts 190°
2026-05-05 21:34 53.34743 -2.29065 218 ft 12 kts 167°
2026-05-05 21:34 53.34676 -2.28967 219 ft 14 kts 92°
2026-05-05 21:34 53.34695 -2.28904 226 ft 0 kts 52°
2026-05-05 21:35 53.34700 -2.28892 223 ft 12 kts 52°
2026-05-05 21:35 53.34895 -2.28484 231 ft 76 kts 51°
2026-05-05 21:35 53.35363 -2.27516 245 ft 136 kts 51°
2026-05-05 21:35 53.35949 -2.26275 623 ft 124 kts 60°
2026-05-05 21:36 53.36452 -2.25207 729 ft 115 kts 65°
2026-05-05 21:36 53.36933 -2.24019 530 ft 131 kts 68°
2026-05-05 21:36 53.37418 -2.22742 676 ft 128 kts 68°
2026-05-05 21:36 53.37866 -2.21571 913 ft 120 kts 71°
2026-05-05 21:37 53.38309 -2.20303 926 ft 122 kts 72°
2026-05-05 21:37 53.38712 -2.19059 906 ft 128 kts 77°
2026-05-05 21:37 53.39066 -2.17675 949 ft 126 kts 82°
2026-05-05 21:37 53.39331 -2.16285 981 ft 128 kts 85°
2026-05-05 21:38 53.39546 -2.14877 1101 ft 122 kts 89°
2026-05-05 21:38 53.39711 -2.13439 1031 ft 128 kts 89°
2026-05-05 21:38 53.39914 -2.11978 1052 ft 130 kts 86°
2026-05-05 21:38 53.40113 -2.10520 1223 ft 126 kts 91°
2026-05-05 21:39 53.40228 -2.09090 1418 ft 121 kts 94°
2026-05-05 21:39 53.40264 -2.07686 1585 ft 120 kts 98°
2026-05-05 21:39 53.40226 -2.06291 1716 ft 121 kts 95°
2026-05-05 21:39 53.40427 -2.04919 1729 ft 125 kts 71°
2026-05-05 21:40 53.40959 -2.03758 1791 ft 125 kts 50°
2026-05-05 21:40 53.41719 -2.03070 1886 ft 127 kts 30°
2026-05-05 21:40 53.42599 -2.02986 1918 ft 129 kts
2026-05-05 21:40 53.43439 -2.03626 1882 ft 140 kts 338°
2026-05-05 21:41 53.44076 -2.04916 1948 ft 147 kts 311°
2026-05-05 21:41 53.44335 -2.06586 2029 ft 152 kts 289°
2026-05-05 21:41 53.44427 -2.08383 1963 ft 157 kts 291°
2026-05-05 21:41 53.44556 -2.10202 1979 ft 156 kts 293°
2026-05-05 21:42 53.44709 -2.11987 1989 ft 156 kts 295°
2026-05-05 21:42 53.44899 -2.13788 1997 ft 155 kts 296°
2026-05-05 21:42 53.45116 -2.15560 2037 ft 156 kts 300°
2026-05-05 21:42 53.45364 -2.17321 2091 ft 153 kts 301°
2026-05-05 21:43 53.45637 -2.19040 2124 ft 153 kts 303°
2026-05-05 21:43 53.45944 -2.20749 2157 ft 152 kts 305°
2026-05-05 21:43 53.46280 -2.22438 2176 ft 152 kts 307°